Probability
0 0 0 0 0 0 0 0 0 0 0 0 0 0 3 10 10 13 16 19 19 19 16 23 23 19 32 48 68 71 74 74 71 74 68 65 61 68 71 58 48 45 45 52
0 0 0 0 0 0 0 0 0 0 3 0 0 3 10 13 10 6 13 23 26 23 32 26 29 32 39 48 68 74 74 77 77 77 81 81 68 65 68 68 55 48 52 52
0 0 0 0 0 0 0 0 0 0 0 0 6 3 6 10 10 13 13 23 23 19 29 26 32 32 35 52 55 55 71 77 74 74 74 71 74 68 65 68 71 58 58 55
0 0 0 0 0 0 0 0 0 0 0 0 0 3 16 10 10 10 10 19 19 23 23 29 32 39 32 48 58 65 71 74 77 74 74 77 74 68 68 74 74 68 65 58
0 0 0 0 0 0 0 0 0 0 0 0 0 0 10 19 10 16 10 23 23 29 26 32 35 35 35 45 58 65 71 71 74 77 81 81 81 74 68 81 74 77 68 65
0 0 0 0 0 0 0 0 0 0 0 0 0 0 3 16 26 23 19 16 29 26 26 35 42 45 29 29 45 55 68 74 74 77 77 77 81 81 81 77 77 77 71 65
0 0 0 0 0 0 0 0 0 0 3 0 0 0 6 10 13 19 16 29 23 32 32 29 39 42 39 23 48 61 65 71 74 74 74 77 77 77 74 74 74 74 71 68
0 0 0 0 0 0 0 0 0 0 0 0 0 0 10 10 6 13 13 32 29 23 26 29 29 35 32 29 52 61 65 68 71 68 74 74 74 71 71 71 68 65 65 68
0 3 0 0 0 0 0 0 0 0 0 0 0 3 16 16 13 10 10 23 29 29 26 32 35 32 26 29 35 52 61 65 68 68 68 65 65 68 71 68 71 65 71 68
0 0 0 0 0 0 0 0 0 3 3 0 0 0 13 23 16 13 13 23 32 32 35 29 19 32 23 23 39 45 48 58 61 61 58 52 65 61 65 61 65 65 65 58
0 0 3 0 0 0 0 0 0 3 0 0 0 3 13 19 16 16 26 26 35 29 32 32 26 32 35 26 29 42 45 55 61 58 61 65 58 58 58 58 61 61 61 58
0 0 3 0 0 0 0 0 0 3 3 3 0 0 0 6 13 23 32 29 29 32 45 35 29 32 35 39 39 35 45 42 55 58 58 55 58 58 58 55 58 58 58 58
0 0 0 0 0 0 0 0 0 0 0 0 0 0 3 10 19 19 32 42 35 45 42 32 35 42 45 42 52 45 48 39 42 42 42 48 52 58 58 55 55 55 55 55
0 0 0 0 0 0 0 0 0 0 0 0 3 3 13 16 26 23 42 42 35 42 45 39 42 52 52 55 52 52 48 35 39 48 42 45 48 52 52 48 48 48 48 48
0 0 0 0 0 0 0 0 0 0 0 3 6 10 19 16 13 16 32 26 29 45 45 48 52 52 55 55 52 42 35 39 45 45 42 52 52 48 52 48 52 42 42 32
0 0 0 0 0 0 0 0 3 3 3 3 6 10 13 16 16 29 32 32 45 48 55 52 52 55 55 48 42 35 35 39 39 39 42 45 45 42 42 42 42 35 35 35
0 0 0 0 0 0 0 0 3 3 3 3 6 13 13 10 23 32 32 32 42 52 55 52 48 45 42 48 39 35 35 35 35 35 39 42 35 39 39 32 29 35 35 39
0 19 3 3 0 0 0 0 0 0 0 3 3 10 16 13 26 26 26 39 45 52 52 52 48 48 42 39 35 39 35 32 32 32 26 26 32 29 29 23 32 35 35 39
0 13 0 0 0 0 0 0 0 0 0 10 6 6 6 10 19 32 32 45 42 48 42 45 48 45 45 32 35 39 39 35 29 26 29 26 23 29 23 26 26 35 35 39
0 3 0 0 0 0 0 0 0 0 3 6 10 10 6 13 13 35 42 39 35 29 39 39 45 42 45 42 39 32 29 29 26 26 23 29 19 19 26 23 23 23 35 26
0 0 0 3 0 3 0 3 0 0 13 10 13 13 32 32 42 45 39 32 32 35 35 35 32 39 42 32 32 32 32 29 26 19 19 19 23 23 29 26 23 26 23 26
0 0 0 3 0 0 0 3 16 32 39 13 16 19 35 45 45 39 45 39 39 29 29 29 35 39 32 29 32 35 35 29 16 16 16 19 26 19 19 23 29 26 23 23
3 3 6 16 6 16 6 16 26 23 26 23 26 29 35 39 42 39 45 42 42 35 32 32 35 39 35 35 35 29 32 26 19 13 19 19 23 23 23 26 19 26 23 16
6 10 3 16 10 10 6 6 13 13 16 19 26 26 26 39 45 45 48 45 45 39 32 35 35 32 29 29 29 32 32 23 19 23 26 23 23 19 23 29 13 16 16 10
3 6 10 19 13 6 13 13 10 6 13 16 19 19 23 42 45 42 45 45 42 42 35 35 35 35 32 32 32 29 26 19 23 23 16 16 19 16 29 16 19 13 16 10
6 6 13 13 19 10 10 6 6 13 13 10 13 26 35 35 42 42 45 45 42 42 35 32 29 32 32 29 29 26 23 19 23 23 19 16 16 19 13 13 6 0 0 0
Height
5904 5906 5906 5908 5910 5912 5913 5913 5912 5912 5911 5911 5909 5907 5906 5904 5903 5902 5901 5900 5898 5896 5895 5894 5894 5893 5892 5891 5889 5888 5887 5885 5884 5883 5881 5880 5879 5877 5876 5874 5873 5872 5870 5869
5904 5904 5906 5907 5909 5910 5912 5912 5912 5912 5910 5910 5909 5907 5905 5904 5902 5901 5900 5899 5898 5895 5895 5894 5894 5893 5892 5891 5890 5889 5888 5886 5885 5883 5882 5880 5879 5878 5876 5874 5873 5872 5870 5869
5902 5904 5906 5907 5908 5909 5910 5910 5911 5911 5909 5908 5908 5906 5904 5903 5901 5901 5900 5899 5897 5895 5895 5894 5893 5893 5892 5891 5890 5889 5888 5887 5885 5884 5883 5881 5880 5878 5877 5875 5873 5872 5870 5869
5900 5902 5903 5904 5906 5907 5907 5908 5909 5909 5908 5907 5907 5905 5903 5902 5901 5899 5899 5898 5897 5895 5894 5894 5893 5892 5892 5891 5890 5889 5888 5887 5885 5884 5883 5881 5880 5878 5877 5875 5873 5872 5870 5868
5898 5900 5901 5902 5904 5904 5905 5906 5906 5906 5905 5904 5904 5904 5902 5900 5900 5899 5899 5898 5897 5895 5894 5893 5892 5892 5891 5890 5890 5889 5888 5886 5885 5884 5882 5881 5879 5878 5876 5874 5873 5871 5869 5867
5896 5897 5899 5900 5901 5902 5903 5904 5904 5903 5903 5902 5902 5902 5901 5899 5899 5898 5898 5897 5896 5894 5892 5892 5891 5891 5890 5890 5889 5888 5887 5886 5885 5883 5882 5880 5878 5877 5875 5873 5871 5870 5868 5866
5893 5894 5896 5897 5898 5900 5901 5902 5902 5901 5900 5901 5901 5901 5901 5898 5898 5897 5896 5895 5894 5892 5891 5891 5890 5889 5889 5888 5887 5887 5886 5885 5883 5882 5880 5879 5877 5875 5873 5872 5870 5868 5866 5864
5891 5892 5893 5894 5896 5898 5899 5900 5900 5900 5898 5899 5899 5898 5898 5897 5896 5895 5894 5893 5892 5890 5890 5889 5888 5887 5887 5886 5886 5885 5884 5883 5881 5880 5878 5877 5875 5873 5871 5869 5867 5865 5863 5862
5888 5889 5890 5891 5893 5895 5896 5897 5898 5898 5897 5897 5897 5894 5894 5894 5893 5893 5892 5891 5890 5888 5888 5887 5886 5885 5885 5884 5883 5882 5881 5880 5879 5877 5876 5874 5872 5870 5868 5866 5864 5862 5860 5858
5885 5886 5888 5889 5890 5891 5893 5895 5897 5896 5895 5895 5894 5892 5892 5890 5889 5890 5889 5888 5887 5886 5885 5885 5884 5883 5883 5881 5880 5879 5879 5877 5876 5875 5873 5871 5869 5867 5865 5863 5861 5859 5857 5855
5881 5883 5885 5886 5887 5888 5890 5891 5892 5893 5893 5892 5890 5891 5888 5889 5886 5885 5886 5886 5884 5883 5883 5882 5882 5881 5880 5879 5878 5877 5875 5874 5873 5872 5870 5868 5866 5864 5862 5860 5858 5856 5853 5851
5877 5879 5880 5882 5883 5884 5886 5887 5888 5889 5888 5888 5887 5889 5886 5886 5883 5882 5883 5883 5882 5881 5879 5879 5879 5878 5877 5876 5875 5873 5872 5871 5869 5868 5866 5865 5863 5861 5859 5856 5854 5852 5849 5847
5872 5874 5875 5878 5881 5880 5881 5883 5884 5886 5886 5885 5885 5886 5884 5883 5881 5881 5880 5880 5879 5878 5876 5876 5876 5875 5874 5873 5871 5870 5869 5867 5866 5865 5863 5861 5859 5857 5854 5852 5850 5847 5845 5842
5866 5868 5870 5873 5874 5875 5877 5879 5879 5881 5881 5882 5882 5881 5881 5880 5878 5878 5877 5877 5876 5875 5874 5873 5873 5872 5871 5870 5868 5867 5866 5864 5862 5861 5859 5857 5854 5852 5850 5847 5845 5842 5839 5836
5862 5863 5865 5867 5869 5871 5872 5874 5875 5876 5877 5878 5878 5877 5877 5876 5874 5874 5873 5873 5873 5872 5871 5870 5869 5868 5867 5866 5864 5863 5862 5860 5858 5857 5855 5852 5850 5847 5845 5842 5839 5837 5834 5831
5856 5858 5860 5862 5864 5867 5868 5870 5871 5872 5873 5874 5874 5873 5873 5872 5871 5871 5870 5870 5868 5868 5867 5866 5865 5864 5862 5861 5860 5859 5857 5856 5854 5852 5850 5847 5845 5842 5839 5837 5834 5831 5828 5825
5851 5853 5855 5857 5860 5862 5864 5866 5868 5869 5869 5870 5869 5869 5869 5869 5868 5867 5866 5865 5864 5863 5863 5862 5861 5859 5858 5856 5855 5854 5853 5851 5849 5847 5845 5842 5840 5837 5834 5831 5828 5825 5822 5819
5846 5848 5851 5853 5856 5856 5862 5862 5863 5864 5865 5866 5865 5865 5865 5864 5863 5862 5862 5861 5860 5859 5858 5856 5854 5854 5854 5852 5851 5850 5848 5846 5844 5842 5839 5837 5834 5831 5829 5826 5823 5819 5816 5812
5841 5843 5846 5848 5850 5852 5856 5857 5857 5859 5860 5861 5860 5860 5860 5858 5857 5857 5857 5856 5855 5854 5854 5852 5851 5850 5849 5848 5846 5845 5843 5841 5839 5836 5833 5831 5828 5826 5823 5819 5816 5813 5809 5806
5836 5838 5841 5842 5845 5847 5851 5852 5852 5854 5854 5855 5855 5855 5854 5853 5854 5853 5852 5851 5850 5849 5849 5848 5846 5845 5845 5843 5841 5840 5838 5836 5833 5831 5828 5825 5822 5820 5816 5813 5810 5806 5803 5799
5830 5832 5834 5837 5838 5841 5844 5845 5847 5850 5849 5849 5850 5849 5849 5849 5849 5848 5847 5847 5846 5845 5844 5843 5842 5841 5840 5838 5836 5834 5832 5830 5828 5825 5822 5819 5816 5813 5810 5807 5803 5800 5796 5793
5823 5826 5828 5831 5833 5837 5838 5839 5841 5842 5843 5843 5843 5844 5843 5843 5843 5843 5843 5842 5841 5840 5839 5838 5837 5836 5834 5832 5831 5829 5827 5825 5822 5819 5816 5813 5810 5807 5804 5800 5797 5793 5789 5786
5816 5820 5822 5824 5827 5828 5830 5832 5833 5834 5836 5836 5837 5838 5838 5838 5838 5838 5837 5836 5836 5835 5834 5833 5832 5830 5829 5826 5825 5823 5821 5818 5816 5813 5810 5806 5803 5800 5797 5794 5790 5786 5782 5779
5808 5811 5814 5816 5819 5821 5823 5824 5826 5827 5829 5830 5831 5832 5832 5832 5831 5831 5831 5831 5830 5829 5828 5827 5826 5825 5823 5821 5819 5817 5815 5812 5809 5806 5803 5800 5797 5793 5790 5786 5783 5779 5775 5771
5800 5803 5806 5809 5812 5814 5815 5817 5819 5820 5822 5823 5824 5825 5825 5825 5825 5825 5825 5825 5824 5824 5823 5821 5820 5818 5817 5815 5812 5810 5808 5805 5802 5799 5796 5793 5790 5786 5783 5779 5776 5772 5768 5764
5794 5797 5799 5801 5803 5806 5808 5810 5811 5813 5814 5816 5817 5818 5819 5819 5819 5819 5819 5818 5817 5817 5816 5815 5813 5812 5809 5807 5805 5803 5801 5798 5795 5793 5790 5786 5783 5779 5776 5773 5769 5765 5762 5758
Wind_Speed
6 7 6 3 4 5 7 8 7 7 8 8 8 10 9 9 10 11 10 11 10 8 7 8 8 8 8 9 10 11 10 10 10 10 10 10 10 10 10 10 10 10 11 11
9 8 6 5 7 7 8 8 6 8 9 7 8 10 10 10 10 10 10 10 10 10 7 8 8 8 8 9 9 10 10 10 10 10 10 11 11 11 11 11 11 11 11 12
11 9 9 9 8 8 10 9 8 9 9 9 8 12 13 11 9 11 11 11 11 11 8 9 8 8 8 9 9 10 10 10 10 10 10 11 11 11 11 11 11 11 11 12
12 10 11 11 10 10 10 10 9 10 10 12 10 11 14 13 12 11 12 12 12 12 11 10 9 9 9 9 9 9 10 10 11 11 10 11 12 12 13 12 12 12 13 13
12 12 12 11 12 11 10 10 10 11 11 10 9 10 13 13 12 12 13 13 12 13 12 11 9 9 9 9 9 9 10 11 11 12 12 11 11 12 13 13 13 13 14 15
12 12 13 12 13 12 10 11 11 11 12 11 8 8 12 12 12 14 14 13 12 12 12 10 10 10 10 9 10 10 11 12 12 12 13 13 12 13 14 14 14 15 15 16
12 12 13 12 11 11 10 10 10 10 11 9 8 9 12 12 13 16 16 14 13 13 12 12 10 11 11 10 10 11 12 13 13 14 14 14 14 14 15 15 15 16 16 17
13 15 15 13 12 12 10 10 11 12 12 9 11 12 12 13 14 15 16 15 14 13 13 13 12 12 12 11 12 13 13 14 15 15 16 15 16 16 16 16 17 17 18 18
15 15 13 13 12 12 12 12 11 12 13 12 11 14 14 12 14 16 16 16 15 14 13 13 12 12 13 13 14 15 14 15 16 17 17 16 16 17 17 17 18 19 19 19
17 16 14 14 13 13 14 12 11 13 15 16 14 14 14 13 14 16 16 16 14 14 14 14 13 12 13 14 15 16 16 16 17 17 17 17 17 18 18 18 19 20 20 21
17 16 15 15 16 15 16 15 14 14 15 15 15 13 13 15 15 14 16 16 15 14 14 15 13 13 14 15 16 16 17 17 17 17 17 18 18 19 20 20 20 21 21 22
18 18 18 17 17 17 17 18 16 16 16 15 15 17 14 14 15 15 15 16 16 15 15 14 13 14 14 15 16 17 17 17 17 18 18 19 20 20 21 22 22 22 23 23
19 19 19 16 15 17 18 17 17 16 17 17 16 18 14 14 14 15 15 15 16 16 15 15 15 15 15 16 16 16 17 18 18 19 20 21 21 22 22 23 23 24 25 25
21 20 19 17 16 15 16 16 17 17 16 16 16 16 16 16 15 16 16 15 15 16 16 16 16 16 16 17 17 17 18 18 20 21 21 22 23 23 24 24 25 26 27 27
21 22 21 19 17 15 16 15 16 17 16 14 16 18 16 16 16 17 17 17 16 16 17 17 17 17 17 17 18 18 19 19 21 22 23 24 24 25 26 26 26 27 27 27
23 22 21 20 18 17 16 15 15 16 16 15 16 18 16 17 18 19 19 18 17 18 18 18 18 18 18 19 20 20 20 21 22 23 24 25 25 26 27 27 27 28 28 29
21 22 20 18 17 17 18 17 16 15 15 16 17 17 18 19 20 21 20 20 19 19 19 19 19 19 20 20 21 21 21 22 23 24 24 25 26 27 27 28 28 29 30 30
22 22 21 20 18 19 17 17 17 17 17 17 19 18 19 19 21 22 21 20 18 19 20 20 19 20 21 21 21 21 22 23 23 25 26 26 27 27 28 28 29 30 30 30
23 23 23 21 20 18 16 16 16 17 17 17 19 19 19 21 22 21 20 20 20 19 20 20 20 20 21 21 21 22 23 23 24 26 26 27 27 28 29 29 30 31 31 30
23 24 24 23 21 20 17 16 17 19 19 18 19 21 21 21 21 21 21 20 19 18 19 20 21 22 21 21 22 22 23 24 25 26 27 27 27 29 29 30 30 30 30 31
25 26 26 25 23 21 19 19 18 20 20 19 20 22 22 21 22 23 22 21 20 19 21 22 23 23 22 22 22 23 23 25 26 27 28 28 29 30 30 30 30 31 31 31
24 26 27 26 26 24 22 22 22 23 23 23 23 24 22 23 23 24 23 22 21 22 22 23 23 23 23 23 24 24 26 27 28 29 29 30 30 30 30 30 31 31 31 30
26 27 27 26 26 25 23 23 26 27 27 26 25 25 24 24 25 24 23 23 23 24 24 24 24 25 25 25 26 27 28 29 29 29 29 30 30 30 30 31 30 30 30 30
27 28 28 28 28 28 27 27 27 26 27 28 27 26 25 26 27 27 26 25 25 25 26 26 26 26 27 27 27 28 29 30 30 29 30 30 30 30 30 30 30 30 30 30
26 27 29 29 28 29 28 28 28 28 28 28 28 27 26 26 27 27 27 27 27 26 26 27 27 27 28 27 28 28 29 29 30 30 30 30 30 29 29 29 30 30 30 31
26 28 28 28 29 29 29 28 27 28 28 27 28 27 26 26 27 27 27 27 27 27 27 27 27 27 27 28 28 29 29 30 30 30 30 31 30 29 30 30 31 30 30 30
Wind_Direction
234 253 250 219 246 258 270 281 288 300 305 312 315 312 317 321 322 326 330 329 329 333 338 341 348 352 358 6 11 14 14 14 15 15 14 15 14 11 9 8 8 5 3 2
238 251 257 236 238 247 259 267 284 296 293 304 304 301 304 309 317 320 320 319 320 328 335 334 335 341 346 353 357 2 6 9 10 9 8 6 4 2 0 1 2 359 355 354
242 243 244 241 236 250 256 262 264 272 283 285 287 297 302 303 304 312 320 322 323 320 332 329 332 335 336 341 348 352 356 357 357 358 0 3 0 359 359 356 356 354 351 350
242 242 239 244 247 241 254 259 263 268 276 282 281 293 300 312 310 310 318 320 317 315 320 321 326 329 327 332 339 344 344 345 345 344 345 350 351 351 353 353 352 351 348 345
236 241 241 241 243 245 250 264 270 266 268 276 280 285 294 310 317 315 316 314 311 309 310 310 313 317 320 322 325 332 336 340 342 339 335 338 341 343 344 346 346 345 343 341
237 242 243 243 243 247 249 261 265 268 274 280 275 274 291 303 312 309 308 309 307 300 296 297 303 306 310 312 313 319 326 330 333 333 332 333 333 334 335 336 337 337 337 337
247 246 244 244 242 245 243 251 264 268 273 279 288 275 278 293 301 302 303 305 304 301 295 294 296 298 302 303 306 311 318 320 322 323 323 327 328 328 328 327 329 331 333 333
245 251 247 244 241 239 242 247 263 274 281 279 285 275 275 282 296 302 301 301 302 302 298 295 292 296 296 296 300 305 309 312 314 316 319 322 324 325 325 325 326 327 328 328
242 249 252 256 246 238 241 248 259 276 287 274 270 278 279 285 293 297 298 300 297 296 295 295 294 292 293 294 297 303 303 307 309 310 314 317 321 322 322 322 322 322 322 322
245 249 246 255 256 248 243 246 250 263 278 281 272 278 286 289 292 290 291 298 297 293 292 292 291 292 296 297 298 302 303 306 306 307 310 313 315 318 318 318 318 318 318 317
242 248 250 249 248 247 249 250 245 250 263 277 277 277 277 285 287 283 288 295 296 295 291 291 291 295 297 298 300 301 301 302 304 306 310 311 312 314 315 316 316 315 315 316
240 242 248 248 247 247 246 247 248 253 262 267 276 277 276 287 291 289 288 290 290 291 290 291 295 298 299 299 300 303 303 303 303 306 308 309 310 311 312 313 312 312 312 314
237 242 243 239 242 247 249 249 250 252 259 267 274 276 278 285 285 289 289 287 287 290 290 294 296 300 300 299 299 301 304 304 305 307 308 310 309 309 310 309 309 311 311 311
237 240 241 241 240 243 248 252 253 248 253 256 263 270 273 277 279 283 285 288 289 290 292 294 297 299 300 300 300 299 301 303 305 306 307 309 309 308 308 309 310 310 310 309
240 241 241 242 243 243 247 253 255 251 251 255 261 268 270 275 279 286 285 285 287 289 291 293 295 296 296 297 298 298 298 301 303 305 306 307 308 309 309 308 309 310 310 310
238 240 242 240 238 239 240 246 252 251 249 253 261 261 268 275 279 282 284 284 284 289 291 292 293 296 296 298 298 298 299 301 303 304 306 307 308 309 310 310 309 308 308 309
239 241 240 240 238 240 241 244 246 249 246 252 261 262 265 273 277 277 280 280 283 285 290 292 293 294 297 297 298 298 299 302 304 306 307 308 308 309 309 309 309 309 309 308
240 240 241 242 241 245 248 251 249 248 249 252 259 263 268 273 274 275 277 277 279 284 288 289 289 292 295 297 298 300 302 303 304 306 307 308 308 308 308 309 308 308 309 309
239 242 240 241 244 249 249 254 252 250 250 250 257 261 263 270 271 272 273 278 282 284 289 289 292 297 299 300 301 302 302 304 305 306 307 307 307 308 308 309 309 309 309 311
243 242 241 241 240 245 245 249 252 254 250 248 255 259 258 263 269 272 276 284 287 283 287 295 298 298 298 300 300 302 304 305 307 307 307 306 306 306 307 310 311 311 311 311
241 242 241 242 243 243 246 247 247 251 253 255 259 261 262 268 271 274 280 285 284 286 288 293 296 296 298 299 300 302 303 305 307 307 307 307 306 307 309 310 311 311 311 310
239 243 243 243 244 244 245 248 249 252 255 256 258 261 265 269 270 274 278 281 286 288 291 293 294 294 296 298 299 302 303 304 305 307 307 306 306 307 308 308 310 310 310 310
237 240 243 244 244 246 245 247 251 253 255 256 258 261 267 269 271 273 276 281 285 287 290 291 292 294 294 298 300 302 304 304 304 306 307 307 307 307 307 307 309 310 311 309
235 238 242 244 246 248 248 248 250 251 253 257 261 264 264 267 271 273 275 279 283 286 288 289 291 293 295 297 299 301 303 304 305 307 309 309 307 307 308 308 309 311 312 311
236 238 241 244 245 246 245 247 250 251 254 257 259 261 264 268 271 274 276 278 280 283 286 288 289 292 293 295 298 301 302 303 304 306 308 308 308 309 309 310 311 312 312 313
236 238 239 239 242 244 245 248 252 255 256 257 260 262 265 268 272 275 277 278 278 280 284 287 289 291 291 293 297 299 301 302 304 305 307 307 307 308 309 310 311 313 313 313